DLH653 OYSN-HECA

Flight info

Callsign DLH653
Flight time N/A
Altitude 34000
Route IMSIL M559 LABNI M999 BOSUT Q11 JDW L677 MENLI
Aircraft A306/H-SDE3FGHIRWY/LB1

Departure

Time N/A
Airport Sanaa International Airport (OYSN)

Arrival

Time 2026-05-05 18:09
Airport Cairo International Airport (HECA)
Time Latitude Longitude Altitude Speed Heading
2026-05-05 17:05 26.84297 35.74076 5000 ft 3 kts
2026-05-05 17:05 26.86056 35.74155 5510 ft 256 kts 359°
2026-05-05 17:05 26.87617 35.74348 6679 ft 203 kts
2026-05-05 17:06 26.89028 35.74521 6796 ft 208 kts
2026-05-05 17:06 26.90644 35.74675 6851 ft 253 kts 360°
2026-05-05 17:06 26.92471 35.74819 6885 ft 270 kts 358°
2026-05-05 17:06 26.94357 35.74968 6890 ft 274 kts 359°
2026-05-05 17:07 26.96263 35.75064 6888 ft 274 kts 352°
2026-05-05 17:07 26.98107 35.74545 6854 ft 283 kts 331°
2026-05-05 17:07 26.99717 35.73281 6852 ft 283 kts 316°
2026-05-05 17:07 27.01081 35.71713 6852 ft 279 kts 308°
2026-05-05 17:08 27.02271 35.70011 6856 ft 277 kts 304°
2026-05-05 17:08 27.03380 35.68233 7098 ft 281 kts 303°
2026-05-05 17:08 27.04488 35.66397 7916 ft 286 kts 302°
2026-05-05 17:08 27.05612 35.64556 9362 ft 285 kts 302°
2026-05-05 17:09 27.06748 35.62728 10666 ft 287 kts 302°
2026-05-05 17:09 27.07911 35.60886 11790 ft 292 kts 301°
2026-05-05 17:09 27.08714 35.59626 12315 ft 295 kts 301°
2026-05-05 17:09 27.09906 35.57770 12764 ft 298 kts 301°
2026-05-05 17:10 27.11132 35.55876 12922 ft 301 kts 302°
2026-05-05 17:10 27.12371 35.53973 12933 ft 302 kts 302°
2026-05-05 17:10 27.13610 35.52073 12942 ft 302 kts 302°
2026-05-05 17:10 27.14852 35.50168 12945 ft 302 kts 302°
2026-05-05 17:11 27.16090 35.48261 12938 ft 302 kts 302°
2026-05-05 17:11 27.17328 35.46354 12942 ft 302 kts 302°
2026-05-05 17:11 27.18560 35.44452 12941 ft 301 kts 302°
2026-05-05 17:11 27.19791 35.42548 12939 ft 301 kts 302°
2026-05-05 17:12 27.21022 35.40643 12944 ft 301 kts 302°
2026-05-05 17:12 27.22253 35.38735 12944 ft 301 kts 302°
2026-05-05 17:12 27.23481 35.36833 12945 ft 301 kts 302°
2026-05-05 17:12 27.24710 35.34927 12946 ft 301 kts 302°
2026-05-05 17:13 27.25938 35.33021 12943 ft 301 kts 302°
2026-05-05 17:13 27.27167 35.31115 12938 ft 301 kts 302°
2026-05-05 17:13 27.28399 35.29204 12936 ft 301 kts 302°
2026-05-05 17:13 27.29627 35.27295 12945 ft 301 kts 302°
2026-05-05 17:14 27.30856 35.25387 12949 ft 301 kts 302°
2026-05-05 17:14 27.32085 35.23478 12946 ft 301 kts 302°
2026-05-05 17:14 27.33342 35.21519 12954 ft 325 kts 302°
2026-05-05 17:14 27.34735 35.19361 12956 ft 355 kts 303°
2026-05-05 17:15 27.36227 35.17098 12950 ft 362 kts 303°
2026-05-05 17:15 27.37739 35.14828 12949 ft 362 kts 303°
2026-05-05 17:15 27.39245 35.12557 12959 ft 361 kts 303°
2026-05-05 17:15 27.40719 35.10309 13001 ft 362 kts 303°
2026-05-05 17:16 27.42202 35.08027 13106 ft 361 kts 303°
2026-05-05 17:16 27.43665 35.05755 13236 ft 361 kts 302°
2026-05-05 17:16 27.45137 35.03456 13359 ft 362 kts 302°
2026-05-05 17:16 27.46607 35.01156 13487 ft 363 kts 302°
2026-05-05 17:17 27.48081 34.98847 13618 ft 363 kts 302°
2026-05-05 17:17 27.49556 34.96538 13751 ft 364 kts 302°
2026-05-05 17:17 27.51079 34.94250 13853 ft 367 kts 306°
2026-05-05 17:17 27.52812 34.92125 13969 ft 369 kts 310°
2026-05-05 17:18 27.54629 34.90078 14083 ft 370 kts 311°
2026-05-05 17:18 27.56492 34.88072 14189 ft 371 kts 313°
2026-05-05 17:18 27.58380 34.86084 14301 ft 371 kts 313°
2026-05-05 17:18 27.60273 34.84108 14415 ft 372 kts 313°
2026-05-05 17:19 27.62173 34.82124 14523 ft 372 kts 313°
2026-05-05 17:19 27.64072 34.80133 14639 ft 373 kts 313°
2026-05-05 17:19 27.65971 34.78136 14753 ft 373 kts 313°
2026-05-05 17:19 27.67865 34.76136 14867 ft 374 kts 313°
2026-05-05 17:20 27.69762 34.74130 14929 ft 374 kts 312°
2026-05-05 17:20 27.71632 34.72151 14929 ft 362 kts 312°
2026-05-05 17:20 27.73442 34.70225 14931 ft 354 kts 312°
2026-05-05 17:20 27.75226 34.68314 14934 ft 353 kts 312°
2026-05-05 17:21 27.77008 34.66400 14940 ft 353 kts 312°
2026-05-05 17:21 27.78791 34.64489 14935 ft 353 kts 312°
2026-05-05 17:21 27.80575 34.62582 14936 ft 353 kts 312°
2026-05-05 17:22 27.84152 34.58773 14938 ft 354 kts 312°
2026-05-05 17:22 27.85888 34.56812 14937 ft 352 kts 309°
2026-05-05 17:22 27.87507 34.54744 14937 ft 351 kts 306°
2026-05-05 17:22 27.89059 34.52619 14937 ft 350 kts 304°
2026-05-05 17:23 27.90518 34.50466 14937 ft 349 kts 302°
2026-05-05 17:23 27.91919 34.48231 14936 ft 348 kts 301°
2026-05-05 17:23 27.93294 34.45941 14936 ft 348 kts 300°
2026-05-05 17:23 27.94627 34.43699 14993 ft 347 kts 300°
2026-05-05 17:24 27.95973 34.41428 15095 ft 348 kts 300°
2026-05-05 17:24 27.97322 34.39153 15195 ft 348 kts 300°
2026-05-05 17:24 27.98670 34.36875 15317 ft 349 kts 300°
2026-05-05 17:24 28.00022 34.34593 15435 ft 350 kts 300°
2026-05-05 17:25 28.01373 34.32304 15543 ft 350 kts 300°
2026-05-05 17:25 28.02283 34.30762 15633 ft 349 kts 300°
2026-05-05 17:25 28.04071 34.27729 15791 ft 349 kts 300°
2026-05-05 17:25 28.05416 34.25448 15911 ft 349 kts 300°
2026-05-05 17:26 28.06764 34.23160 16029 ft 350 kts 300°
2026-05-05 17:26 28.08116 34.20864 16168 ft 350 kts 300°
2026-05-05 17:26 28.09459 34.18569 16289 ft 349 kts 300°
2026-05-05 17:26 28.10802 34.16279 16442 ft 349 kts 300°
2026-05-05 17:27 28.12141 34.13980 16561 ft 350 kts 300°
2026-05-05 17:27 28.13487 34.11675 16678 ft 351 kts 300°
2026-05-05 17:27 28.14831 34.09371 16804 ft 351 kts 300°
2026-05-05 17:27 28.16177 34.07069 16921 ft 350 kts 300°
2026-05-05 17:28 28.17522 34.04772 17051 ft 350 kts 300°
2026-05-05 17:28 28.18869 34.02470 17169 ft 351 kts 300°
2026-05-05 17:28 28.20231 34.00174 17305 ft 351 kts 300°
2026-05-05 17:28 28.21606 33.97892 17445 ft 352 kts 300°
2026-05-05 17:29 28.22976 33.95595 17580 ft 352 kts 300°
2026-05-05 17:29 28.24337 33.93293 17701 ft 351 kts 300°
2026-05-05 17:29 28.25690 33.90980 17828 ft 352 kts 300°
2026-05-05 17:29 28.27046 33.88664 17953 ft 353 kts 300°
2026-05-05 17:30 28.28406 33.86340 18091 ft 354 kts 300°
2026-05-05 17:30 28.29772 33.84012 18227 ft 354 kts 300°
2026-05-05 17:30 28.31139 33.81682 18330 ft 355 kts 300°
2026-05-05 17:30 28.32506 33.79352 18451 ft 355 kts 300°
2026-05-05 17:31 28.33876 33.77016 18564 ft 356 kts 300°
2026-05-05 17:31 28.35250 33.74677 18642 ft 356 kts 300°
2026-05-05 17:31 28.36625 33.72334 18737 ft 357 kts 300°
2026-05-05 17:31 28.38004 33.69988 18869 ft 357 kts 300°
2026-05-05 17:32 28.39382 33.67639 18980 ft 358 kts 300°
2026-05-05 17:32 28.40757 33.65282 19093 ft 358 kts 300°
2026-05-05 17:32 28.42134 33.62920 19208 ft 359 kts 300°
2026-05-05 17:32 28.43515 33.60555 19321 ft 359 kts 300°
2026-05-05 17:33 28.44895 33.58192 19435 ft 360 kts 300°
2026-05-05 17:33 28.46281 33.55818 19551 ft 361 kts 300°
2026-05-05 17:33 28.47668 33.53441 19673 ft 361 kts 300°
2026-05-05 17:33 28.49039 33.51091 19782 ft 362 kts 300°
2026-05-05 17:34 28.50431 33.48708 19897 ft 362 kts 300°
2026-05-05 17:34 28.51827 33.46323 19985 ft 362 kts 300°
2026-05-05 17:34 28.53224 33.43934 19997 ft 363 kts 300°
2026-05-05 17:34 28.54619 33.41547 20001 ft 363 kts 300°
2026-05-05 17:35 28.56022 33.39160 20001 ft 363 kts 300°
2026-05-05 17:35 28.57676 33.36967 20008 ft 371 kts 313°
2026-05-05 17:35 28.59602 33.35019 20006 ft 368 kts 310°
2026-05-05 17:35 28.61370 33.32917 20011 ft 367 kts 308°
2026-05-05 17:36 28.63102 33.30787 20003 ft 367 kts 308°
2026-05-05 17:36 28.64859 33.28670 20025 ft 368 kts 309°
2026-05-05 17:36 28.66659 33.26575 20018 ft 375 kts 310°
2026-05-05 17:36 28.68538 33.24446 20021 ft 385 kts 311°
2026-05-05 17:37 28.70468 33.22302 20016 ft 389 kts 311°
2026-05-05 17:37 28.71760 33.20884 20016 ft 389 kts 311°
2026-05-05 17:37 28.74383 33.18036 20015 ft 389 kts 311°
2026-05-05 17:37 28.76348 33.15915 20015 ft 389 kts 312°
2026-05-05 17:38 28.78315 33.13793 20018 ft 389 kts 312°
2026-05-05 17:38 28.80281 33.11671 20019 ft 389 kts 312°
2026-05-05 17:38 28.82245 33.09547 20018 ft 389 kts 312°
2026-05-05 17:38 28.84208 33.07423 20018 ft 389 kts 312°
2026-05-05 17:39 28.86170 33.05297 20018 ft 389 kts 311°
2026-05-05 17:39 28.88132 33.03169 20022 ft 389 kts 312°
2026-05-05 17:39 28.90089 33.01045 20021 ft 389 kts 312°
2026-05-05 17:39 28.92050 32.98914 20023 ft 389 kts 312°
2026-05-05 17:40 28.94011 32.96784 20024 ft 389 kts 311°
2026-05-05 17:40 28.95970 32.94653 20024 ft 389 kts 311°
2026-05-05 17:40 28.97927 32.92523 20000 ft 386 kts 311°
2026-05-05 17:40 28.99830 32.90466 19905 ft 367 kts 312°
2026-05-05 17:41 29.01663 32.88506 19665 ft 355 kts 312°
2026-05-05 17:41 29.03445 32.86619 19419 ft 344 kts 312°
2026-05-05 17:41 29.05173 32.84789 19175 ft 334 kts 312°
2026-05-05 17:41 29.06847 32.83012 18940 ft 325 kts 312°
2026-05-05 17:42 29.08492 32.81253 18709 ft 323 kts 312°
2026-05-05 17:42 29.10129 32.79488 18477 ft 323 kts 312°
2026-05-05 17:42 29.11762 32.77713 18239 ft 323 kts 312°
2026-05-05 17:42 29.13384 32.75943 17974 ft 322 kts 312°
2026-05-05 17:43 29.14998 32.74176 17704 ft 321 kts 312°
2026-05-05 17:43 29.16584 32.72438 17437 ft 319 kts 312°
2026-05-05 17:43 29.18187 32.70682 17193 ft 319 kts 312°
2026-05-05 17:43 29.19803 32.68911 16943 ft 318 kts 312°
2026-05-05 17:44 29.21395 32.67164 16681 ft 316 kts 312°
2026-05-05 17:44 29.22983 32.65423 16424 ft 315 kts 312°
2026-05-05 17:44 29.24566 32.63687 16183 ft 315 kts 312°
2026-05-05 17:44 29.26143 32.61956 15924 ft 314 kts 312°
2026-05-05 17:45 29.27667 32.60225 15681 ft 311 kts 308°
2026-05-05 17:45 29.29068 32.58347 15446 ft 309 kts 307°
2026-05-05 17:45 29.30431 32.56444 15200 ft 308 kts 306°
2026-05-05 17:45 29.31776 32.54533 14951 ft 308 kts 306°
2026-05-05 17:46 29.33154 32.52658 14717 ft 307 kts 308°
2026-05-05 17:46 29.34577 32.50830 14496 ft 307 kts 309°
2026-05-05 17:46 29.36022 32.49033 14257 ft 307 kts 309°
2026-05-05 17:46 29.37464 32.47227 14036 ft 306 kts 309°
2026-05-05 17:47 29.38866 32.45399 13795 ft 305 kts 308°
2026-05-05 17:47 29.40227 32.43538 13537 ft 304 kts 307°
2026-05-05 17:47 29.41554 32.41657 13269 ft 303 kts 306°
2026-05-05 17:47 29.42863 32.39764 13002 ft 303 kts 306°
2026-05-05 17:48 29.44162 32.37866 12755 ft 302 kts 306°
2026-05-05 17:48 29.45459 32.35966 12491 ft 302 kts 306°
2026-05-05 17:48 29.46753 32.34068 12249 ft 302 kts 306°
2026-05-05 17:48 29.48043 32.32175 11994 ft 300 kts 307°
2026-05-05 17:49 29.49331 32.30288 11745 ft 300 kts 307°
2026-05-05 17:49 29.50616 32.28403 11498 ft 301 kts 307°
2026-05-05 17:49 29.51906 32.26512 11252 ft 300 kts 307°
2026-05-05 17:49 29.53192 32.24626 11017 ft 299 kts 307°
2026-05-05 17:50 29.54475 32.22744 10764 ft 299 kts 308°
2026-05-05 17:50 29.55826 32.20920 10511 ft 300 kts 309°
2026-05-05 17:50 29.57125 32.19062 10265 ft 298 kts 307°
2026-05-05 17:50 29.58393 32.17169 10040 ft 298 kts 307°
2026-05-05 17:51 29.59633 32.15289 9780 ft 291 kts 307°
2026-05-05 17:51 29.60836 32.13463 9500 ft 282 kts 307°
2026-05-05 17:51 29.62005 32.11690 9232 ft 275 kts 307°
2026-05-05 17:51 29.63133 32.09987 8973 ft 269 kts 307°
2026-05-05 17:52 29.64279 32.08266 8706 ft 268 kts 307°
2026-05-05 17:52 29.65405 32.06583 8463 ft 269 kts 308°
2026-05-05 17:52 29.66551 32.04882 8206 ft 269 kts 308°
2026-05-05 17:52 29.67700 32.03183 7963 ft 269 kts 308°
2026-05-05 17:53 29.68841 32.01500 7704 ft 265 kts 308°
2026-05-05 17:53 29.69972 31.99834 7448 ft 264 kts 308°
2026-05-05 17:53 29.71105 31.98162 7208 ft 266 kts 308°
2026-05-05 17:53 29.72243 31.96482 6961 ft 265 kts 308°
2026-05-05 17:54 29.73372 31.94815 6713 ft 263 kts 308°
2026-05-05 17:54 29.74492 31.93162 6513 ft 262 kts 308°
2026-05-05 17:54 29.75612 31.91508 6386 ft 261 kts 308°
2026-05-05 17:54 29.76720 31.89873 6266 ft 257 kts 308°
2026-05-05 17:55 29.77812 31.88247 6154 ft 257 kts 305°
2026-05-05 17:55 29.78667 31.86440 6061 ft 258 kts 294°
2026-05-05 17:55 29.79314 31.84513 5947 ft 258 kts 290°
2026-05-05 17:55 29.79877 31.82540 5853 ft 260 kts 288°
2026-05-05 17:56 29.80385 31.80544 5748 ft 260 kts 287°
2026-05-05 17:56 29.80696 31.79216 5675 ft 258 kts 286°
2026-05-05 17:56 29.81154 31.77222 5574 ft 258 kts 286°
2026-05-05 17:56 29.81753 31.74581 5422 ft 257 kts 286°
2026-05-05 17:57 29.82202 31.72590 5325 ft 257 kts 286°
2026-05-05 17:57 29.82652 31.70603 5229 ft 257 kts 286°
2026-05-05 17:57 29.83108 31.68607 5138 ft 259 kts 286°
2026-05-05 17:57 29.83423 31.67253 5053 ft 259 kts 287°
2026-05-05 17:58 29.83888 31.65262 4959 ft 257 kts 286°
2026-05-05 17:58 29.84343 31.63278 4858 ft 256 kts 287°
2026-05-05 17:58 29.84907 31.61340 4778 ft 255 kts 290°
2026-05-05 17:58 29.85471 31.59393 4657 ft 257 kts 288°
2026-05-05 17:59 29.85975 31.57440 4421 ft 257 kts 287°
2026-05-05 17:59 29.86452 31.55458 4147 ft 257 kts 286°
2026-05-05 17:59 29.86920 31.53481 3936 ft 254 kts 286°
2026-05-05 17:59 29.87367 31.51521 3723 ft 253 kts 285°
2026-05-05 18:00 29.87807 31.49549 3493 ft 254 kts 285°
2026-05-05 18:00 29.88245 31.47575 3195 ft 253 kts 285°
2026-05-05 18:00 29.88669 31.45618 2888 ft 250 kts 285°
2026-05-05 18:00 29.89071 31.43690 2605 ft 243 kts 285°
2026-05-05 18:01 29.89456 31.41873 2478 ft 223 kts 285°
2026-05-05 18:01 29.89805 31.40211 2451 ft 203 kts 285°
2026-05-05 18:01 29.90112 31.38698 2426 ft 187 kts 285°
2026-05-05 18:01 29.90396 31.37247 2448 ft 185 kts 285°
2026-05-05 18:02 29.90675 31.35791 2465 ft 187 kts 284°
2026-05-05 18:02 29.90967 31.34327 2465 ft 186 kts 286°
2026-05-05 18:02 29.91233 31.32888 2461 ft 183 kts 285°
2026-05-05 18:02 29.91491 31.31459 2456 ft 183 kts 285°
2026-05-05 18:03 29.91887 31.30056 2460 ft 185 kts 296°
2026-05-05 18:03 29.92509 31.28761 2464 ft 185 kts 303°
2026-05-05 18:03 29.93245 31.27555 2453 ft 182 kts 307°
2026-05-05 18:03 29.93997 31.26461 2444 ft 166 kts 309°
2026-05-05 18:04 29.94845 31.25641 2451 ft 160 kts 334°
2026-05-05 18:04 29.95914 31.25256 2466 ft 163 kts 345°
2026-05-05 18:04 29.97054 31.25100 2466 ft 167 kts 354°
2026-05-05 18:04 29.98217 31.25192 2451 ft 171 kts 15°
2026-05-05 18:05 29.99216 31.25897 2444 ft 168 kts 33°
2026-05-05 18:05 30.00058 31.26832 2458 ft 168 kts 39°
2026-05-05 18:05 30.00865 31.27815 2460 ft 169 kts 42°
2026-05-05 18:05 30.01640 31.28835 2423 ft 168 kts 45°
2026-05-05 18:06 30.02407 31.29868 2410 ft 170 kts 44°
2026-05-05 18:06 30.02923 31.30548 2414 ft 171 kts 45°
2026-05-05 18:06 30.03968 31.31909 2203 ft 166 kts 43°
2026-05-05 18:06 30.04718 31.32884 1959 ft 159 kts 41°
2026-05-05 18:07 30.05426 31.33809 1745 ft 148 kts 44°
2026-05-05 18:07 30.06075 31.34663 1609 ft 136 kts 45°
2026-05-05 18:07 30.06694 31.35487 1450 ft 137 kts 43°
2026-05-05 18:07 30.07322 31.36326 1250 ft 139 kts 42°
2026-05-05 18:08 30.07948 31.37158 1053 ft 141 kts 43°
2026-05-05 18:08 30.08620 31.38040 814 ft 147 kts 44°
2026-05-05 18:08 30.09273 31.38924 586 ft 144 kts 46°
2026-05-05 18:08 30.09920 31.39772 419 ft 138 kts 42°
2026-05-05 18:09 30.10520 31.40576 386 ft 122 kts 44°
2026-05-05 18:09 30.10989 31.41179 380 ft 77 kts 50°
2026-05-05 18:09 30.11243 31.41495 379 ft 38 kts 39°
2026-05-05 18:09 30.11458 31.41613 380 ft 29 kts 15°
2026-05-05 18:10 30.11576 31.41594 380 ft 8 kts 302°
2026-05-05 18:10 30.11556 31.41541 381 ft 11 kts 235°
2026-05-05 18:10 30.11492 31.41455 381 ft 17 kts 229°
2026-05-05 18:10 30.11401 31.41332 381 ft 23 kts 230°
2026-05-05 18:11 30.11291 31.41179 381 ft 27 kts 227°
2026-05-05 18:11 30.11161 31.41014 381 ft 27 kts 229°
2026-05-05 18:11 30.11044 31.40857 381 ft 24 kts 228°
2026-05-05 18:11 30.10939 31.40715 380 ft 22 kts 231°
2026-05-05 18:12 30.10841 31.40584 380 ft 21 kts 229°
2026-05-05 18:12 30.10746 31.40463 380 ft 20 kts 229°
2026-05-05 18:12 30.10669 31.40360 380 ft 9 kts 242°
2026-05-05 18:12 30.10689 31.40323 380 ft 9 kts 314°
2026-05-05 18:13 30.10716 31.40264 380 ft 5 kts 242°
2026-05-05 18:13 30.10669 31.40202 380 ft 15 kts 229°
2026-05-05 18:13 30.10582 31.40088 380 ft 23 kts 228°
2026-05-05 18:13 30.10480 31.39955 380 ft 21 kts 230°
2026-05-05 18:14 30.10486 31.39880 380 ft 7 kts 319°
2026-05-05 18:14 30.10558 31.39851 380 ft 15 kts 342°
2026-05-05 18:14 30.10672 31.39816 380 ft 17 kts 346°
2026-05-05 18:14 30.10752 31.39786 380 ft 3 kts 307°
2026-05-05 18:15 30.10753 31.39736 380 ft 7 kts 257°
2026-05-05 18:15 30.10746 31.39707 380 ft 0 kts 253°